DW0542 Webster MA US current weather conditions

sailwx.info

Wind from 082

Air temperature 16.7° C
Dewpoint 15.0° C

Last reported at 2020-Jul-07 09:00 UTC.
Time now 2020-Jul-07 10:06 UTC

Location: N 42°02' W 071°50'.
View on Google Maps.

See reports from other nearby stations

  
Tides and Currents Weather Stations Pressure Air Temp Water Temp Dewpoint Dewpoint Depression Visibility Wind Speed Wind Dir Waves Ship Positions
date/time (UTC)wind fromknots sea level pressurealtimeterstation pressurevisibilityair tempwater tempwave heightnotes
2020-Jul-07 09:00 082 16.7
2020-Jul-07 08:45 082 17.2
2020-Jul-07 08:30 082 17.2
2020-Jul-07 08:15 082 17.2
2020-Jul-07 08:00 082 17.2
2020-Jul-07 07:45 082 17.2
2020-Jul-07 07:31 082 17.8
2020-Jul-07 07:16 082 17.8
2020-Jul-07 07:01 153 17.8
2020-Jul-07 06:46 162 18.3
2020-Jul-07 06:32 162 18.3
2020-Jul-07 06:17 149 18.3
2020-Jul-07 06:01 148 18.9
2020-Jul-07 05:48 126 18.9
2020-Jul-07 05:31 097 18.9
2020-Jul-07 05:16 097 18.9
2020-Jul-07 05:01 097 18.9
2020-Jul-07 04:46 097 18.9
2020-Jul-07 04:31 097 18.9
2020-Jul-07 04:16 098 18.9
2020-Jul-07 04:01 098 18.9
2020-Jul-07 03:47 098 18.9
2020-Jul-07 03:31 098 18.9
2020-Jul-07 03:16 098 18.9
2020-Jul-07 03:01 102 19.4
2020-Jul-07 02:45 102 19.4
2020-Jul-07 02:31 102 19.4
2020-Jul-07 02:16 102 20.0
2020-Jul-07 02:00 102 20.0
2020-Jul-07 01:46 102 20.6
2020-Jul-07 01:31 102 21.1
2020-Jul-07 01:15 102 21.7
2020-Jul-07 01:00 101 21.7
2020-Jul-07 00:45 101 21.7
2020-Jul-07 00:31 101 22.2
2020-Jul-07 00:15 101 22.8
2020-Jul-07 00:00 102 23.3
2020-Jul-06 23:45 100 23.9
2020-Jul-06 23:30 114 24.4
2020-Jul-06 23:15 126 24.4
2020-Jul-06 23:00 168 24.4
2020-Jul-06 22:46 089 25.0
2020-Jul-06 22:30 068 25.0
2020-Jul-06 22:15 082 25.0
2020-Jul-06 22:00 146 25.6
2020-Jul-06 21:45 166 25.6
2020-Jul-06 21:30 078 25.6
2020-Jul-06 21:15 074 25.6
2020-Jul-06 21:00 116 25.6
2020-Jul-06 20:45 105 25.6
2020-Jul-06 20:30 349 26.7
2020-Jul-06 20:15 182 26.7
2020-Jul-06 20:00 090 26.7
2020-Jul-06 19:45 088 26.7
2020-Jul-06 19:30 140 26.7
2020-Jul-06 19:15 068 27.2
2020-Jul-06 19:00 329 26.7
2020-Jul-06 18:45 306 0 gusting 4 26.7
2020-Jul-06 18:30 258 26.1
2020-Jul-06 18:15 073 26.1
2020-Jul-06 18:00 306 25.6
2020-Jul-06 17:45 150 25.6
2020-Jul-06 17:30 127 25.0
2020-Jul-06 17:15 018 24.4
2020-Jul-06 17:01 061 23.9
2020-Jul-06 16:46 326 0 gusting 7 23.9
2020-Jul-06 16:31 320 24.4
2020-Jul-06 16:17 072 23.9
2020-Jul-06 16:01 002 23.3
2020-Jul-06 15:46 331 23.3
2020-Jul-06 15:32 322 23.3
2020-Jul-06 15:16 322 0 gusting 5 23.3
2020-Jul-06 15:01 316 22.8
2020-Jul-06 14:47 322 22.2
2020-Jul-06 14:31 329 22.2
2020-Jul-06 14:17 324 21.7
2020-Jul-06 14:01 328 21.7
2020-Jul-06 13:46 327 21.1
2020-Jul-06 13:32 339 20.6
2020-Jul-06 13:16 339 20.6
2020-Jul-06 13:01 344 20.6
2020-Jul-06 12:46 329 20.0
2020-Jul-06 12:31 320 20.0
2020-Jul-06 12:15 320 20.0
2020-Jul-06 12:00 316 20.0
2020-Jul-06 11:46 316 19.4
2020-Jul-06 11:30 316 19.4
2020-Jul-06 11:16 316 18.9
2020-Jul-06 11:00 317 18.3
2020-Jul-06 10:45 317 18.3
2020-Jul-06 10:30 317 17.8
2020-Jul-06 10:15 318 17.8
2020-Jul-06 10:00 318 17.8
2020-Jul-06 09:45 318 17.8
2020-Jul-06 09:30 318 18.3
2020-Jul-06 09:15 318 18.3
2020-Jul-06 09:00 315 18.9
2020-Jul-06 08:45 315 18.9
2020-Jul-06 08:30 315 18.9
2020-Jul-06 08:15 315 18.9
2020-Jul-06 08:00 315 19.4
2020-Jul-06 07:45 315 19.4
2020-Jul-06 07:30 315 19.4
2020-Jul-06 07:15 315 19.4
2020-Jul-06 07:00 315 19.4
2020-Jul-06 06:47 315 20.0
2020-Jul-06 06:31 315 20.0
2020-Jul-06 06:16 315 20.0
2020-Jul-06 06:01 315 20.6
2020-Jul-06 05:47 315 20.6
2020-Jul-06 05:32 315 20.6
2020-Jul-06 05:17 315 21.1
2020-Jul-06 05:01 315 21.1
2020-Jul-06 04:46 315 21.7
2020-Jul-06 04:31 315 21.7
2020-Jul-06 04:15 315 22.2
2020-Jul-06 04:02 315 22.8
2020-Jul-06 03:46 315 22.8
2020-Jul-06 03:31 315 0 gusting 7 23.3
2020-Jul-06 03:17 205 22.8
2020-Jul-06 03:01 189 22.8
2020-Jul-06 02:46 189 22.8
2020-Jul-06 02:34 198 23.3
2020-Jul-06 02:16 201 23.3
2020-Jul-06 02:01 201 23.3
2020-Jul-06 01:46 207 23.3
2020-Jul-06 01:31 213 23.3
2020-Jul-06 01:16 213 23.3
2020-Jul-06 01:01 214 23.3
2020-Jul-06 00:45 214 23.9
2020-Jul-06 00:31 214 24.4
2020-Jul-06 00:16 214 25.0
2020-Jul-06 00:01 214 26.1
2020-Jul-05 23:45 214 27.2
2020-Jul-05 23:31 214 28.9
2020-Jul-05 23:15 214 29.4
2020-Jul-05 23:00 214 29.4
2020-Jul-05 22:45 214 29.4
2020-Jul-05 22:30 214 29.4
2020-Jul-05 22:15 214 29.4
2020-Jul-05 22:00 214 29.4
2020-Jul-05 21:45 214 29.4
2020-Jul-05 21:31 217 29.4
2020-Jul-05 21:15 218 0 gusting 4 28.9
2020-Jul-05 21:00 226 28.9
2020-Jul-05 20:45 236 0 gusting 6 28.9
2020-Jul-05 20:30 226 28.9
2020-Jul-05 20:15 214 0 gusting 4 28.3
2020-Jul-05 20:00 270 0 gusting 4 28.3
2020-Jul-05 19:45 268 1 gusting 6 28.9
2020-Jul-05 19:30 215 3 gusting 8 28.3
2020-Jul-05 19:15 292 3 gusting 8 28.3
2020-Jul-05 19:00 305 1 gusting 5 27.8
2020-Jul-05 18:45 299 1 gusting 7 27.8
2020-Jul-05 18:31 299 27.8
2020-Jul-05 18:15 299 0 gusting 7 27.8
2020-Jul-05 18:00 326 3 gusting 6 27.8
2020-Jul-05 17:45 285 27.2
2020-Jul-05 17:30 274 27.2
2020-Jul-05 17:15 274 26.7
2020-Jul-05 17:00 274 26.1
2020-Jul-05 16:46 274 25.6
2020-Jul-05 16:32 271 25.6
2020-Jul-05 16:01 271 24.4
2020-Jul-05 15:46 268 24.4
2020-Jul-05 15:31 268 23.9
2020-Jul-05 15:17 255 23.3
2020-Jul-05 15:02 256 22.8
2020-Jul-05 14:46 265 22.8
2020-Jul-05 14:30 272 22.2
2020-Jul-05 14:15 245 22.2
2020-Jul-05 14:00 238 21.7
2020-Jul-05 13:46 235 21.1
2020-Jul-05 13:31 235 20.6
2020-Jul-05 13:00 242 20.6
2020-Jul-05 12:45 232 0 gusting 4 20.0
2020-Jul-05 12:30 266 0 gusting 4 20.0
2020-Jul-05 12:15 248 20.0
2020-Jul-05 12:00 222 19.4
2020-Jul-05 11:45 216 19.4
2020-Jul-05 11:30 211 18.9
2020-Jul-05 11:15 211 18.9
2020-Jul-05 11:00 211 18.9
2020-Jul-05 10:45 216 18.9
2020-Jul-05 10:31 218 1 gusting 7 18.9
2020-Jul-05 10:15 236 18.9
2020-Jul-05 10:00 236 18.9